HIMAWARI-9 (41836 NORAD) Tracking and Keplerian Element Data

This shows tracking and keplerian element data for the satellite.

Feedback or suggestion? Click here.




ElementValue
Catalog41836
NameHIMAWARI-9
Epoch Orbit2906
Epoch Day286.76069499
Epoch Year2024
RAAN168.1638
Inclination0.0353
Eccentricity7.37E-05
Argument of Perigee26.4393
Mean Anonmoly241.8546
Mean Motion1.00273121
Decay Rate-2.75E-06
L11 41836U 16064A 24286.76069499 -.00000275 00000+0 00000+0 0 9994
L22 41836 0.0353 168.1638 0000737 26.4393 241.8546 1.00273121 29066



Live tracking and technical data element details for HIMAWARI-9 (NORAD 41836). HIMAWARI-9 can be tracked NOW for your location showing map with azimuth and elevation plus other details from your city location.







IsCatalogInMostPopularTable: catalog: 41836, numindb: 599
Update: records affected: 1



GetName: 41836 HIMAWARI-9

Hit Count: updated at: Tue, 03 Dec 2024 03:17:38 GMT